Retour au catalogue

DMSP 5D-2 F13 DEB

ActifSSO
NORAD 42318·DEBRIS·🇺🇸 United States

Lancé Mar 24, 1995 depuis Vandenberg Space Force Base

Loading…

Prochains Passages (prochaines 24 heures)

TLE

FraisSource: Space-Track

Époque: Sep 14, 2026, 01:30 UTC

1 42318U 95015JL  26257.06253502  .00002837  00000-0  20791-2 0  9994
2 42318  98.7534 297.9146 0202544 154.7027 206.4218 13.87280472556446

Suivez DMSP 5D-2 F13 DEB en temps réel avec AllMySat

Download on the App Store